Regional Weather Roundup
Issued by NWS Northern Indiana

Home | Current Version | Previous Version | Text Only | Print | Product List | Glossary Off
Versions: 1 2 3 4 5 6 7 8 9 10 11 12 13 14 15 16 17 18 19 20 21 22 23 24 25 26 27 28 29 30 31 32 33 34 35 36 37 38 39 40 41 42 43 44 45 46 47 48 49 50

000
ASUS43 KIWX 261300
RWRIWX

KIWX WEATHER ROUNDUP
NATIONAL WEATHER SERVICE NORTHERN INDIANA
900 AM EDT FRI AUG 26 2016

NOTE: "FAIR" INDICATES FEW OR NO CLOUDS BELOW 12,000 FEET WITH NO
SIGNIFICANT WEATHER AND/OR OBSTRUCTIONS TO VISIBILITY.

* THESE STATIONS ARE NOT UNDER NWS QUALITY CONTROL. THEY ALSO MAY NOT
  REPORT WEATHER SUCH AS PRECIPITATION OR FOG.

INZ001>027-261400-
NORTHERN INDIANA

CITY           SKY/WX    TMP DP  RH WIND       PRES   REMARKS
GARY*          PTSUNNY   73  70  88 VRB6      30.16R
KNOX*          PTSUNNY   66  59  77 CALM      30.16R
SOUTH BEND     CLOUDY    69  67  93 CALM      30.17R
ELKHART*       CLOUDY    68  66  94 CALM      30.17R FOG
GOSHEN         CLOUDY    68  66  93 CALM      30.16R FOG
MONTICELLO*    CLOUDY    70  66  88 CALM      30.14S FOG
ANGOLA*        SUNNY     68  61  77 CALM      30.17R
FORT WAYNE     PTSUNNY   72  69  90 E5        30.16R FOG
PERU/GRISSOM   MOSUNNY   71  71 100 E6        30.13F FOG

$$
INZ028>050-261400-
CENTRAL INDIANA

CITY           SKY/WX    TMP DP  RH WIND       PRES   REMARKS
LAFAYETTE      CLOUDY    72  72 100 NE7       30.13R
MUNCIE*        CLOUDY    75  71  87 CALM      30.17R
INDIANAPOLIS   CLOUDY    72  68  87 NE9       30.15R THUNDER

$$
MIZ043>046-050>051-056>058-064>065-071>073-077>080-261400-
SOUTHWEST LOWER MICHIGAN

CITY           SKY/WX    TMP DP  RH WIND       PRES   REMARKS
BATTLE CREEK   PTSUNNY   67  67 100 W3        30.17R
BENTON HARBOR  CLOUDY    68  65  90 CALM      30.15R
COLDWATER*     MOSUNNY   65  65  99 CALM      30.17R
HILLSDALE*     MOSUNNY   68  63  84 CALM      30.18R
HOLLAND        MOSUNNY   67  64  90 CALM      30.16R
GRAND RAPIDS   CLOUDY    67  63  87 CALM      30.15R
KALAMAZOO      PTSUNNY   70  65  84 CALM      30.16R
STURGIS*       CLOUDY    67  66  96 CALM      30.16S FOG
THREE RIVERS*  FAIR      70  68  95 CALM      30.16S

$$
OHZ001>008-015>018-024>025-261400-
NORTHWEST OHIO

CITY           SKY/WX    TMP DP  RH WIND       PRES   REMARKS
DEFIANCE       MOSUNNY   70  65  84 CALM      30.17R
FINDLAY        CLOUDY    73  62  68 NW6       30.16R
TOLEDO EXPRESS MOSUNNY   70  63  78 CALM      30.16R
TOLEDO METCALF CLOUDY    71  64  78 W5        30.16R
LIMA           SUNNY     72  66  81 CALM      30.16R

$$
AND FOR LAKE MICHIGAN COASTAL AND OPEN LAKE BUOY OBSERVATIONS

STATION/POSITION TEMP    WIND        PRES    VSBY  WAVE
                 AIR SEA DIR/SP/G                  HT/PER
                 (F)     (DEG/KT/KT) (MB)    (MI)  (FT/S)
CALUMET HARBOR    68     330/  6/  8 1020.6R
MICHIGAN CITY     73     340/  6/  6   N/A
BURNS HARBOR      73      10/  8/ 11 1021.3R
SAINT JOSEPH      73      20/  6/  8 1021.7R
SOUTH LAKE BUOY   71 74  360/ 10/ 12 1019.7          2/ 4
4 MI NW BRIDGMAN  73 75  360/ 10/ 12 1020.1R         2/ 3
MICHIGAN CITY     74 74  360/  8/ 12   N/A           2/ 3

$$
&&




USA.gov is the U.S. government's official web portal to all federal, state and local government web resources and services.